GW2402 Weather Reports


Display with metric or nautical units.
time (UTC)temp
F
wind
direction
speed
MPH
gust
MPH
rain 1hr
in
rain 24hr
in
rain mn
in
humidity
%
barometer
mb
20260901133056 80 0 0.0 0.0 0.00 0.00 0.00 85 1016.4
20260901131548 79 0 0.0 0.0 0.00 0.00 0.00 87 1016.1
20260901124556 79 0 0.0 0.0 0.00 0.00 0.00 87 1015.9
20260901123056 79 0 0.0 0.0 0.00 0.00 0.00 87 1015.7
20260901121547 79 0 0.0 0.0 0.00 0.00 0.00 88 1015.7
20260901120055 78 0 0.0 0.0 0.00 0.00 0.00 88 1015.6
20260901114551 79 0 0.0 0.0 0.00 0.00 0.00 87 1015.5
20260901113057 79 0 0.0 0.0 0.00 0.00 0.00 87 1015.4
20260901111550 79 0 0.0 0.0 0.00 0.00 0.00 87 1015.5
20260901110058 79 0 0.0 2.0 0.00 0.00 0.00 86 1015.5
20260901104553 79 0 0.0 0.0 0.00 0.00 0.00 87 1015.4
20260901103105 80 0 0.0 1.0 0.00 0.00 0.00 86 1015.2
20260901101557 80 0 0.0 1.0 0.00 0.00 0.00 86 1015.2
20260901100058 80 0 0.0 1.0 0.00 0.00 0.00 86 1015.2
20260901094550 80 0 0.0 1.0 0.00 0.00 0.00 86 1015.4
20260901093054 80 0 0.0 0.0 0.00 0.00 0.00 84 1015.6
20260901091554 80 0 0.0 0.0 0.00 0.00 0.00 83 1015.7
20260901084606 81 0 0.0 0.0 0.00 0.00 0.00 82 1015.6
20260901083047 81 0 0.0 0.0 0.00 0.00 0.00 82 1015.4
20260901081546 81 0 0.0 2.0 0.00 0.00 0.00 81 1015.5
20260901080104 81 0 0.0 0.0 0.00 0.00 0.00 80 1015.4
20260901074553 82 0 0.0 0.0 0.00 0.00 0.00 79 1015.5
20260901073052 82 0 0.0 0.0 0.00 0.00 0.00 78 1015.5
20260901071557 82 0 0.0 0.0 0.00 0.00 0.00 78 1015.4
20260901070057 82 0 0.0 0.0 0.00 0.00 0.00 77 1015.5
20260901064558 83 0 0.0 0.0 0.00 0.00 0.00 76 1015.4
20260901063059 83 0 0.0 1.0 0.00 0.00 0.00 75 1015.3
20260901061558 83 0 0.0 1.0 0.00 0.00 0.00 73 1015.2
20260901060057 84 0 0.0 1.0 0.00 0.00 0.00 72 1015.1
20260901054553 84 0 0.0 1.0 0.00 0.00 0.00 71 1015.3
20260901053057 85 252 0.0 1.0 0.00 0.00 0.00 71 1015.1
20260901051555 85 0 0.0 1.0 0.00 0.00 0.00 69 1015.0
20260901050055 86 0 0.0 0.0 0.00 0.00 0.00 68 1014.7
20260901044603 86 0 0.0 1.0 0.00 0.00 0.00 67 1014.7
20260901043048 87 0 0.0 1.0 0.00 0.00 0.00 66 1014.9
20260901041558 87 0 0.0 1.0 0.00 0.00 0.00 65 1014.6
20260901040054 87 0 0.0 1.0 0.00 0.00 0.00 64 1014.5
20260901034600 88 0 0.0 1.0 0.00 0.00 0.00 63 1014.5
20260901033055 88 0 0.0 1.0 0.00 0.00 0.00 61 1014.5
20260901031555 88 0 0.0 1.0 0.00 0.00 0.00 59 1014.2
20260901030053 89 0 0.0 1.0 0.00 0.00 0.00 57 1014.1
20260901024549 89 0 0.0 1.0 0.00 0.00 0.00 54 1014.0
20260901023048 89 0 0.0 2.0 0.00 0.00 0.00 52 1013.5
20260901021555 89 0 0.0 0.0 0.00 0.00 0.00 50 1013.3
20260901020055 90 0 0.0 0.0 0.00 0.00 0.00 50 1013.2
20260901014554 90 0 0.0 0.0 0.00 0.00 0.00 49 1012.9
20260901013116 91 0 0.0 0.0 0.00 0.00 0.00 49 1013.0
20260901011556 91 0 0.0 0.0 0.00 0.00 0.00 48 1012.8
20260901010059 92 0 0.0 0.0 0.00 0.00 0.00 48 1012.5
20260901004554 93 0 0.0 0.0 0.00 0.00 0.00 46 1012.5
20260901003059 94 86 0.0 1.0 0.00 0.00 0.00 45 1012.5
20260901001559 95 0 0.0 1.0 0.00 0.00 0.00 43 1012.4
20260831234553 97 0 0.0 0.0 0.00 0.00 0.00 42 1012.2
20260831233053 96 0 0.0 1.0 0.00 0.00 0.00 43 1012.0
20260831231547 97 0 0.0 1.0 0.00 0.00 0.00 43 1012.4
20260831230054 98 0 0.0 1.0 0.00 0.00 0.00 43 1012.4
20260831224550 98 0 0.0 1.0 0.00 0.00 0.00 43 1012.7
20260831223054 99 0 0.0 1.0 0.00 0.00 0.00 43 1012.7
20260831221556 98 0 0.0 1.0 0.00 0.00 0.00 42 1012.9
20260831220055 96 0 0.0 1.0 0.00 0.00 0.00 45 1013.0
20260831214559 95 89 0.0 1.0 0.00 0.00 0.00 46 1013.0
20260831213046 96 0 0.0 1.0 0.00 0.00 0.00 47 1013.2
20260831211553 98 63 0.0 2.0 0.00 0.00 0.00 45 1013.4
20260831210049 98 111 0.0 1.0 0.00 0.00 0.00 45 1013.4
20260831204603 99 0 1.0 2.0 0.00 0.00 0.00 44 1013.9
20260831203101 98 144 0.0 1.0 0.00 0.00 0.00 45 1014.2
20260831201549 97 124 0.0 4.0 0.00 0.00 0.00 46 1014.4
20260831200056 97 269 0.0 2.0 0.00 0.00 0.00 48 1014.9
20260831194601 96 0 0.0 2.0 0.00 0.00 0.00 48 1015.1
20260831193115 96 0 0.0 1.0 0.00 0.00 0.00 49 1015.2
20260831191555 96 132 0.0 4.0 0.00 0.00 0.00 50 1015.5
20260831190057 95 0 0.0 1.0 0.00 0.00 0.00 52 1015.7
20260831184550 94 0 0.0 5.0 0.00 0.00 0.00 53 1015.7
20260831183103 95 0 0.0 2.0 0.00 0.00 0.00 50 1015.9
20260831181609 95 276 0.0 3.0 0.00 0.00 0.00 53 1016.0
20260831174551 92 0 0.0 3.0 0.00 0.00 0.00 56 1016.4
20260831173100 92 212 0.0 5.0 0.00 0.00 0.00 57 1016.5
20260831171556 92 0 1.0 4.0 0.00 0.00 0.00 60 1016.7
20260831170051 92 0 1.0 2.0 0.00 0.00 0.00 60 1016.7
20260831164606 91 0 0.0 4.0 0.00 0.00 0.00 63 1017.0
20260831163059 90 35 0.0 2.0 0.00 0.00 0.00 63 1016.8
20260831161607 89 0 0.0 1.0 0.00 0.00 0.00 69 1016.8
20260831160105 87 0 1.0 4.0 0.00 0.00 0.00 70 1016.9
20260831154621 86 0 0.0 3.0 0.00 0.00 0.00 73 1016.7
20260831153058 85 0 0.0 2.0 0.00 0.00 0.00 75 1016.7
20260831151555 84 234 0.0 1.0 0.00 0.00 0.00 77 1016.6
20260831144557 83 0 0.0 1.0 0.00 0.00 0.00 80 1016.5
20260831143055 82 0 0.0 3.0 0.00 0.00 0.00 84 1016.5
20260831141555 81 0 0.0 0.0 0.00 0.00 0.00 86 1016.4
20260831140054 81 0 0.0 1.0 0.00 0.00 0.00 87 1016.2
20260831134559 80 0 0.0 1.0 0.00 0.00 0.00 89 1016.1